Vorticity
5 6 6 6 6 6 6 6 6 6 6 7 7 7 7 8 8 8 8 9 9 9 9 9 9 9 8 8 8 7 7 7 6 6 6 6 5 5 5 5 5 5 5 5 5 5 5 5 5 5 5 4 4 4 4 4 4 4 4 4 4 4 4 3 4 4 4 4 4
5 6 6 6 6 6 6 6 6 6 7 7 7 7 7 7 7 7 8 8 8 9 9 9 9 9 9 9 8 8 8 7 7 7 6 6 6 6 5 5 5 5 5 5 5 5 5 5 5 4 4 4 4 4 4 4 3 3 4 4 4 4 4 4 4 4 4 4 5
5 6 6 6 6 7 7 7 6 6 7 7 7 7 7 7 7 7 7 8 8 8 8 9 9 9 9 9 9 8 8 8 7 7 7 7 6 6 6 6 6 6 6 5 5 5 5 5 4 4 4 4 4 4 4 4 4 4 4 4 4 4 5 5 5 5 6 6 6
5 6 6 6 7 7 7 7 7 7 7 7 7 7 7 7 7 7 7 7 7 8 8 9 9 9 9 9 9 8 8 8 8 7 7 7 7 7 6 6 6 6 6 6 6 5 5 5 5 5 5 5 5 5 5 5 5 5 5 5 6 6 6 6 7 7 7 7 7
6 6 6 6 7 7 7 7 7 7 7 7 7 7 7 7 7 7 7 7 8 8 8 8 9 9 9 9 9 9 8 8 8 8 7 7 7 7 7 7 7 6 6 6 6 6 6 6 6 6 5 5 5 6 6 6 6 7 7 7 7 7 7 8 8 8 8 8 9
6 6 6 6 7 7 7 7 8 8 8 8 8 8 8 7 7 7 7 8 7 8 8 8 8 9 9 9 9 9 9 8 8 8 8 7 7 7 7 7 7 7 7 7 6 6 6 6 6 6 7 6 7 7 7 7 8 8 8 9 9 9 9 9 9 9 9 10 10
6 6 6 6 7 7 7 8 8 8 8 8 8 8 8 8 8 8 8 7 7 7 8 8 8 9 9 9 9 9 8 8 8 8 8 7 7 7 7 7 7 7 7 7 7 7 7 7 7 7 8 8 8 9 9 9 9 10 10 10 10 10 10 10 10 10 10 10 10
6 6 6 7 7 7 8 8 8 8 8 8 8 8 8 8 8 8 8 8 8 8 8 8 8 9 9 9 9 8 8 8 8 8 8 8 8 8 8 8 7 7 7 7 7 7 8 8 8 8 9 9 10 10 10 11 11 11 11 11 10 10 10 10 10 10 10 11 11
6 6 7 7 7 8 8 8 8 8 9 9 9 9 8 8 8 8 8 8 8 8 8 8 8 9 9 9 9 9 9 9 8 8 8 8 8 8 8 8 8 8 8 8 8 8 9 9 10 10 10 11 11 11 11 12 11 11 11 11 11 11 11 11 11 11 11 11 11
6 7 7 7 8 8 8 8 8 9 9 9 9 9 9 9 8 8 8 8 8 8 8 8 8 8 9 9 9 9 9 9 8 8 8 8 9 9 8 9 9 9 9 9 9 9 10 10 11 11 12 12 12 12 12 12 12 11 11 11 11 11 11 11 11 11 12 12 12
7 7 7 8 8 8 8 8 8 8 8 8 8 9 9 9 9 9 8 8 8 8 8 8 8 8 8 8 8 8 8 8 8 8 8 8 9 9 9 9 9 9 9 9 10 10 11 11 12 12 12 12 12 12 11 11 11 11 11 11 11 11 11 11 12 12 12 12 11
7 7 7 8 8 8 8 8 8 8 8 8 8 8 9 9 9 9 9 9 9 8 8 8 8 8 7 7 7 7 8 8 8 8 8 8 8 8 8 8 9 9 9 10 10 11 11 12 12 12 12 12 12 11 11 11 11 11 11 11 11 11 11 11 11 11 11 11 11
7 7 7 8 8 8 8 8 8 8 8 8 8 8 8 9 9 9 9 9 9 9 8 8 8 8 7 7 7 7 7 7 7 7 7 7 7 7 8 8 9 9 10 10 11 11 12 12 11 11 11 11 11 11 11 11 11 11 11 11 11 11 11 11 11 11 11 11 11
7 7 7 7 8 8 8 8 8 8 8 8 8 8 8 9 9 9 9 9 9 9 8 8 8 8 8 7 7 7 7 7 7 7 7 7 7 7 8 8 9 10 11 11 11 12 11 11 11 11 11 11 11 11 11 11 11 11 11 10 10 11 10 10 10 10 10 11 11
8 8 8 8 8 8 8 8 8 8 8 8 8 8 8 9 9 9 9 9 9 9 9 8 8 8 8 8 8 8 7 7 7 7 7 7 7 7 8 9 10 11 11 12 12 11 11 11 10 10 10 10 10 10 10 10 10 10 10 10 10 10 10 10 10 10 11 11 11
8 8 8 8 8 8 8 8 8 8 8 8 8 8 8 9 9 9 9 10 9 9 9 9 9 9 8 8 8 8 8 7 7 7 7 7 7 8 10 11 11 12 12 11 11 11 10 10 10 10 10 10 10 10 10 10 10 10 10 10 10 10 10 11 11 11 11 11 11
8 8 8 8 8 8 8 8 8 8 8 8 8 8 8 9 9 9 10 10 10 10 10 9 9 9 9 8 8 8 8 8 7 7 7 7 8 10 11 11 12 11 11 11 10 10 10 9 9 9 9 9 9 9 10 10 10 10 10 10 10 11 11 11 11 11 11 11 10
8 8 8 8 8 8 8 8 8 8 8 8 8 8 8 9 9 10 10 10 10 10 10 9 9 8 8 8 7 7 7 7 7 7 7 8 9 10 11 11 11 10 10 10 9 9 9 9 9 9 9 9 9 9 9 10 10 10 10 10 11 11 11 11 11 10 10 10 10
8 8 8 8 7 7 7 7 8 8 8 8 8 8 8 9 9 9 10 10 10 10 9 8 8 7 7 7 7 7 6 6 6 6 7 9 10 10 10 10 9 9 8 8 8 8 8 8 9 9 9 9 9 9 10 10 10 10 10 10 10 10 10 10 10 10 9 9 9
8 7 7 7 7 7 7 7 7 7 7 8 8 8 8 9 9 9 10 10 10 9 8 7 7 7 7 6 6 6 5 5 5 6 7 8 9 8 8 8 7 7 7 7 7 8 8 8 9 9 9 9 9 10 10 10 10 10 10 10 10 10 10 9 9 9 9 9 9
7 7 7 7 7 7 7 7 8 8 8 8 8 9 9 9 10 10 10 10 9 8 7 7 7 7 7 6 6 5 5 4 5 6 7 7 7 7 6 6 6 6 7 7 7 8 8 9 9 9 9 9 10 10 10 10 10 10 10 10 9 9 9 9 9 8 8 8 8
7 7 7 7 7 7 8 8 8 8 9 9 10 10 11 11 11 11 11 11 9 8 8 7 7 7 7 6 6 5 5 5 6 6 7 6 6 6 5 6 6 6 7 7 8 8 9 9 9 10 10 10 10 10 10 10 10 10 9 9 9 8 8 8 8 8 8 8 9
7 7 7 7 8 8 9 9 10 10 10 11 12 13 13 13 13 13 12 11 10 9 8 8 7 7 7 6 6 6 6 6 7 7 6 6 5 5 5 6 6 7 8 8 9 9 10 10 10 10 10 10 10 10 10 10 9 9 9 8 8 8 8 8 8 8 8 9 9
8 8 8 8 9 9 10 11 11 12 13 13 13 14 14 14 14 13 12 10 9 8 8 8 7 7 7 6 6 7 7 7 7 6 6 5 5 5 6 7 8 9 9 10 10 10 10 10 10 10 10 10 10 9 9 9 9 8 8 8 8 8 8 8 8 9 9 10 10
8 9 9 10 10 11 12 12 13 13 13 13 13 14 13 13 12 11 10 9 8 8 8 8 8 7 7 7 7 7 7 7 6 6 5 5 6 6 7 8 9 10 10 11 11 10 10 10 10 10 9 9 9 9 9 8 8 8 8 8 8 8 8 8 9 9 10 10 11
9 10 10 11 11 12 12 13 13 12 12 12 12 11 11 10 9 9 8 8 8 8 8 8 8 8 8 8 8 7 7 6 5 5 6 6 7 8 9 10 11 11 11 11 10 10 10 10 9 9 9 9 9 9 9 9 9 9 9 9 8 9 9 9 9 10 11 11 11
10 11 11 11 11 11 11 11 11 10 10 10 9 9 8 8 8 8 8 8 9 9 8 8 8 8 8 7 7 6 5 5 5 6 6 7 9 10 11 11 11 11 10 10 10 9 9 9 9 8 8 8 8 8 9 9 9 9 8 8 9 9 9 10 10 11 11 11 11
11 11 11 10 10 10 10 9 9 8 8 8 8 8 8 8 8 8 8 8 8 8 8 8 7 7 6 6 5 5 5 6 6 7 9 10 11 11 12 11 11 10 10 9 9 9 8 8 8 8 8 8 8 8 9 9 9 8 8 8 9 9 10 10 11 11 11 11 10
10 10 10 10 9 8 8 8 8 7 7 7 8 8 8 8 8 8 8 8 8 7 7 6 6 5 5 4 5 6 7 8 9 10 11 12 12 12 11 10 10 9 9 8 8 8 7 7 7 7 7 8 8 8 8 8 8 8 9 9 10 10 11 11 12 12 11 10 9
10 9 9 8 8 8 7 7 8 8 8 8 8 9 9 9 8 8 7 7 6 6 5 5 4 4 4 5 7 8 9 10 11 12 12 12 12 11 10 10 9 8 8 8 7 7 7 7 7 7 7 7 8 8 8 8 8 9 9 10 10 11 12 12 12 11 10 9 8
9 9 8 8 7 8 8 8 8 8 9 9 9 9 9 8 8 7 6 6 5 4 4 4 4 5 6 8 9 10 11 12 12 12 12 11 10 10 9 9 8 8 7 7 7 6 6 7 7 7 7 7 8 8 8 8 9 9 10 11 11 12 12 12 11 10 9 8 7
9 8 8 8 8 8 9 9 9 9 9 9 9 9 8 8 7 6 5 4 4 4 4 4 6 7 9 10 12 12 13 12 12 11 10 10 9 9 8 8 7 7 6 6 6 6 6 7 7 7 7 8 8 8 9 9 10 10 11 12 12 12 12 11 10 9 8 7 6
8 8 8 8 9 9 9 9 9 9 9 9 9 8 7 6 5 5 4 4 4 5 6 7 9 10 11 12 12 12 12 12 11 10 9 9 8 8 7 7 7 6 6 6 6 6 6 7 7 7 8 8 8 9 9 10 11 11 12 12 12 12 11 10 9 8 7 6 6
8 8 8 9 9 9 9 9 9 9 8 8 7 7 6 5 5 4 4 5 6 7 8 10 11 12 12 12 12 11 11 10 10 9 8 8 7 7 7 6 6 6 6 6 6 6 6 7 7 7 8 8 9 9 10 11 12 12 12 12 12 11 10 9 8 7 6 6 5
8 8 8 8 8 8 8 7 7 7 7 7 6 6 6 5 6 6 6 7 8 10 11 12 12 12 12 11 11 10 10 9 8 8 7 7 7 6 6 6 6 6 6 6 6 6 7 7 7 8 8 9 9 10 11 12 12 12 12 11 11 10 9 8 7 6 6 5 4
8 8 7 7 7 7 6 6 6 6 6 6 6 6 6 6 7 8 8 9 10 11 12 12 12 12 11 10 10 9 9 8 7 7 7 6 6 6 6 6 6 6 6 6 6 6 7 7 8 8 9 10 10 11 12 12 12 12 11 11 10 9 8 7 6 6 5 4 3
7 7 6 6 6 6 5 5 6 6 6 7 7 7 8 8 9 9 10 11 11 11 12 12 11 11 10 10 9 9 8 7 7 6 6 6 6 6 6 6 6 6 6 6 6 7 7 8 9 9 10 10 11 11 12 12 12 11 11 10 9 8 7 6 6 5 4 3 2
7 6 6 6 5 5 6 6 6 7 7 8 8 9 9 9 10 10 11 11 11 11 11 11 10 10 9 9 8 8 7 7 6 6 6 5 6 5 5 5 6 6 6 7 7 7 8 9 10 10 11 11 11 11 11 11 11 10 10 9 8 7 6 6 5 4 3 2 2
7 6 6 6 6 7 7 7 8 8 9 9 9 9 10 10 11 11 11 11 11 11 10 10 9 9 8 8 7 7 7 6 6 6 5 5 5 5 5 5 6 6 7 7 8 8 9 10 11 11 11 11 11 11 11 10 10 9 9 8 7 6 6 5 4 3 2 2 2
8 8 8 8 8 8 9 9 9 9 9 10 10 10 10 11 11 11 11 11 10 10 9 9 9 8 8 7 7 6 6 6 6 6 5 5 5 5 5 6 6 6 7 8 8 9 10 11 11 11 11 11 11 10 10 10 9 9 8 7 6 6 5 4 3 2 2 2 3
9 9 9 9 9 9 9 9 9 9 10 10 10 11 11 11 11 11 10 10 9 9 9 8 8 7 7 6 6 6 5 5 5 5 5 5 5 5 6 6 6 7 8 9 9 10 10 11 11 11 11 11 10 10 9 9 9 8 7 7 6 5 4 3 2 2 2 3 4
Height
5759 5757 5756 5755 5754 5753 5752 5751 5750 5749 5747 5746 5745 5744 5743 5742 5741 5740 5739 5738 5737 5736 5734 5733 5732 5731 5729 5728 5727 5726 5724 5723 5722 5721 5719 5718 5717 5715 5714 5713 5711 5710 5709 5707 5706 5705 5704 5702 5701 5699 5698 5696 5694 5693 5691 5689 5688 5686 5684 5683 5681 5679 5678 5676 5674 5672 5670 5669 5667
5756 5755 5754 5753 5752 5750 5749 5748 5747 5746 5744 5744 5742 5741 5740 5739 5738 5737 5736 5734 5734 5732 5731 5730 5729 5728 5726 5725 5724 5722 5721 5720 5719 5717 5716 5714 5713 5712 5710 5709 5708 5706 5705 5704 5702 5701 5699 5698 5697 5695 5694 5692 5690 5689 5687 5685 5684 5682 5680 5678 5676 5675 5673 5671 5669 5668 5666 5664 5662
5753 5752 5751 5750 5749 5748 5747 5745 5744 5743 5742 5741 5739 5738 5737 5736 5735 5734 5732 5731 5730 5729 5728 5726 5725 5724 5723 5721 5720 5719 5718 5716 5715 5714 5712 5711 5709 5708 5707 5705 5704 5702 5701 5700 5698 5697 5695 5694 5693 5691 5689 5688 5686 5684 5683 5681 5679 5678 5676 5674 5672 5670 5668 5666 5665 5663 5661 5659 5657
5750 5749 5748 5747 5746 5745 5744 5743 5741 5740 5739 5738 5736 5735 5734 5733 5731 5730 5729 5728 5727 5725 5724 5723 5722 5720 5719 5718 5716 5715 5714 5713 5711 5710 5709 5707 5705 5704 5703 5701 5700 5699 5697 5696 5694 5693 5691 5690 5688 5687 5685 5683 5682 5680 5678 5676 5675 5673 5671 5669 5667 5666 5664 5662 5660 5658 5656 5654 5652
5747 5746 5745 5744 5743 5742 5740 5739 5738 5737 5736 5734 5733 5732 5731 5730 5728 5727 5726 5724 5723 5722 5721 5720 5718 5717 5716 5714 5713 5712 5710 5709 5708 5706 5705 5703 5702 5700 5699 5697 5696 5694 5693 5692 5690 5689 5687 5685 5684 5682 5681 5679 5677 5675 5674 5672 5670 5669 5667 5665 5663 5661 5659 5657 5655 5653 5651 5649 5647
5744 5743 5742 5741 5739 5739 5737 5736 5735 5734 5733 5731 5730 5729 5728 5726 5725 5724 5722 5721 5720 5719 5718 5716 5715 5714 5712 5711 5709 5708 5707 5705 5704 5702 5701 5699 5698 5696 5695 5693 5692 5690 5689 5687 5686 5684 5683 5681 5679 5678 5676 5674 5673 5671 5669 5668 5666 5664 5662 5660 5658 5656 5654 5652 5650 5648 5646 5644 5642
5741 5740 5739 5737 5736 5735 5734 5733 5732 5730 5729 5728 5727 5725 5724 5723 5722 5720 5719 5718 5717 5715 5714 5713 5711 5710 5709 5707 5706 5704 5703 5701 5700 5699 5697 5695 5694 5692 5691 5689 5688 5686 5684 5683 5682 5680 5678 5677 5675 5673 5671 5670 5668 5666 5664 5663 5661 5659 5657 5655 5653 5651 5649 5647 5645 5643 5641 5639 5637
5738 5737 5735 5734 5733 5732 5731 5729 5728 5727 5726 5724 5724 5722 5721 5719 5718 5717 5716 5714 5713 5712 5710 5709 5708 5706 5705 5704 5702 5701 5699 5698 5696 5694 5693 5691 5690 5688 5687 5685 5684 5682 5680 5679 5677 5675 5674 5672 5670 5669 5667 5665 5663 5661 5659 5658 5656 5654 5652 5650 5648 5646 5644 5642 5639 5638 5636 5634 5632
5735 5734 5732 5731 5730 5729 5727 5726 5725 5724 5722 5721 5720 5719 5717 5716 5715 5714 5712 5711 5709 5708 5707 5705 5704 5703 5701 5700 5698 5697 5695 5694 5692 5690 5689 5687 5686 5684 5683 5681 5679 5678 5676 5674 5673 5671 5669 5668 5666 5664 5662 5660 5659 5657 5654 5653 5651 5649 5647 5645 5643 5641 5639 5637 5634 5632 5630 5629 5627
5731 5730 5729 5728 5726 5725 5724 5723 5721 5720 5719 5718 5716 5715 5714 5712 5711 5710 5709 5707 5706 5704 5703 5702 5700 5699 5697 5696 5694 5693 5691 5690 5688 5687 5685 5683 5682 5680 5679 5677 5675 5674 5672 5670 5669 5667 5665 5663 5661 5659 5657 5656 5654 5652 5649 5648 5646 5644 5642 5640 5638 5636 5634 5631 5629 5627 5625 5623 5621
5728 5727 5725 5724 5723 5722 5720 5719 5718 5717 5715 5714 5713 5711 5710 5709 5708 5706 5705 5704 5702 5701 5699 5698 5697 5695 5694 5692 5690 5689 5687 5686 5684 5683 5681 5679 5678 5676 5674 5673 5671 5669 5668 5666 5664 5662 5660 5659 5657 5655 5653 5651 5649 5647 5644 5643 5641 5639 5637 5635 5633 5631 5629 5626 5624 5622 5619 5618 5616
5725 5723 5722 5720 5719 5718 5717 5715 5714 5713 5712 5710 5709 5708 5706 5705 5704 5702 5701 5699 5698 5697 5695 5694 5693 5691 5689 5688 5686 5685 5683 5682 5680 5679 5677 5675 5674 5672 5670 5669 5667 5665 5663 5661 5659 5658 5656 5654 5652 5650 5648 5646 5644 5642 5640 5638 5636 5634 5632 5630 5628 5626 5624 5621 5619 5617 5614 5612 5610
5721 5720 5718 5717 5715 5714 5713 5712 5710 5709 5708 5706 5705 5704 5702 5701 5700 5699 5697 5696 5694 5693 5691 5690 5689 5687 5685 5684 5682 5681 5679 5678 5676 5674 5673 5671 5669 5668 5666 5664 5663 5661 5659 5657 5655 5653 5651 5649 5647 5645 5644 5641 5639 5637 5635 5633 5631 5629 5627 5625 5623 5621 5619 5616 5614 5611 5609 5607 5605
5718 5716 5714 5713 5712 5710 5709 5708 5707 5705 5704 5703 5701 5700 5699 5697 5696 5694 5693 5692 5690 5689 5687 5686 5684 5683 5681 5680 5678 5677 5675 5674 5672 5670 5669 5667 5665 5664 5662 5660 5658 5656 5654 5652 5650 5648 5646 5644 5642 5640 5639 5637 5634 5632 5630 5628 5626 5624 5622 5620 5618 5616 5614 5611 5609 5606 5604 5601 5599
5714 5712 5711 5709 5708 5706 5705 5704 5703 5701 5700 5699 5697 5696 5694 5693 5692 5691 5689 5688 5686 5685 5684 5682 5680 5679 5677 5676 5674 5673 5671 5669 5668 5666 5664 5663 5661 5659 5658 5656 5654 5652 5650 5648 5645 5644 5641 5639 5638 5636 5634 5632 5630 5628 5625 5623 5621 5619 5617 5615 5613 5610 5608 5606 5603 5601 5599 5596 5594
5710 5709 5707 5705 5704 5703 5701 5700 5699 5698 5696 5695 5693 5692 5691 5689 5688 5687 5685 5684 5683 5681 5679 5678 5676 5674 5673 5671 5670 5669 5667 5665 5664 5662 5660 5659 5657 5655 5653 5651 5649 5647 5645 5643 5641 5639 5637 5635 5633 5631 5629 5627 5625 5623 5621 5619 5616 5614 5612 5610 5607 5605 5603 5600 5598 5595 5593 5590 5588
5707 5705 5703 5702 5700 5699 5698 5696 5695 5694 5692 5691 5689 5688 5687 5685 5684 5683 5681 5680 5679 5677 5675 5674 5672 5671 5669 5667 5666 5664 5663 5661 5659 5658 5656 5654 5652 5650 5649 5646 5644 5642 5640 5638 5636 5634 5632 5630 5628 5626 5624 5622 5620 5618 5616 5614 5611 5609 5607 5604 5602 5599 5597 5594 5592 5589 5587 5585 5583
5703 5701 5699 5698 5696 5695 5694 5693 5691 5690 5689 5687 5686 5684 5683 5681 5680 5679 5677 5676 5675 5673 5671 5669 5668 5667 5665 5663 5661 5660 5658 5657 5655 5653 5651 5650 5648 5646 5644 5642 5640 5638 5636 5634 5632 5630 5628 5625 5623 5621 5619 5617 5615 5613 5611 5609 5606 5604 5602 5599 5596 5594 5591 5589 5586 5584 5581 5579 5577
5699 5697 5695 5694 5693 5691 5690 5689 5688 5686 5685 5683 5682 5680 5679 5678 5676 5675 5673 5672 5671 5669 5668 5666 5664 5662 5661 5659 5657 5655 5654 5652 5650 5649 5647 5645 5643 5641 5639 5637 5635 5633 5631 5629 5627 5625 5623 5621 5619 5616 5614 5612 5610 5608 5605 5603 5601 5599 5596 5594 5591 5589 5586 5583 5581 5578 5576 5573 5571
5695 5693 5692 5690 5689 5688 5686 5685 5684 5682 5681 5679 5678 5677 5675 5674 5673 5671 5669 5668 5666 5665 5663 5662 5660 5658 5656 5654 5653 5651 5649 5648 5646 5644 5642 5640 5638 5636 5634 5632 5630 5628 5626 5624 5622 5620 5618 5616 5614 5611 5609 5607 5605 5603 5600 5598 5596 5593 5591 5588 5586 5583 5580 5578 5575 5572 5570 5567 5565
5691 5689 5688 5687 5685 5684 5683 5681 5680 5679 5677 5676 5674 5673 5671 5670 5669 5667 5666 5664 5662 5661 5659 5657 5656 5654 5652 5650 5649 5647 5645 5643 5641 5639 5637 5635 5634 5631 5629 5627 5625 5623 5621 5619 5617 5615 5613 5611 5609 5606 5604 5602 5599 5597 5595 5593 5590 5588 5585 5583 5580 5578 5575 5572 5569 5567 5564 5562 5559
5688 5686 5684 5683 5682 5680 5679 5678 5676 5675 5674 5672 5670 5669 5668 5666 5664 5663 5662 5660 5658 5656 5655 5653 5651 5649 5648 5646 5644 5642 5640 5639 5637 5635 5633 5631 5629 5627 5624 5623 5620 5618 5616 5614 5612 5610 5608 5606 5604 5601 5599 5597 5594 5592 5590 5588 5585 5583 5580 5578 5575 5573 5570 5567 5564 5562 5559 5556 5554
5684 5682 5681 5679 5678 5677 5675 5674 5673 5671 5670 5668 5667 5665 5664 5662 5661 5659 5658 5656 5654 5652 5651 5649 5647 5645 5644 5642 5640 5638 5636 5634 5632 5630 5628 5626 5624 5622 5620 5618 5616 5614 5611 5609 5607 5605 5603 5601 5599 5596 5594 5592 5589 5587 5585 5582 5580 5578 5575 5573 5570 5568 5565 5562 5559 5556 5554 5551 5548
5680 5679 5677 5676 5675 5674 5672 5671 5669 5668 5666 5664 5663 5662 5660 5659 5657 5655 5654 5652 5650 5649 5647 5645 5643 5641 5639 5637 5635 5634 5632 5630 5628 5626 5624 5621 5619 5617 5615 5613 5611 5609 5606 5604 5602 5600 5598 5595 5593 5591 5589 5587 5584 5582 5580 5577 5575 5572 5570 5568 5565 5563 5560 5557 5554 5551 5549 5545 5543
5677 5675 5674 5673 5671 5670 5669 5667 5666 5664 5663 5661 5659 5658 5656 5655 5653 5652 5650 5648 5646 5644 5642 5640 5639 5637 5635 5633 5631 5629 5627 5625 5624 5621 5619 5617 5615 5613 5610 5608 5606 5604 5601 5599 5597 5595 5593 5590 5588 5586 5584 5581 5579 5577 5574 5572 5570 5567 5564 5562 5560 5557 5554 5552 5549 5546 5543 5540 5537
5674 5672 5671 5669 5668 5667 5665 5664 5662 5661 5659 5657 5656 5654 5653 5651 5649 5648 5646 5644 5642 5640 5638 5636 5634 5632 5630 5629 5627 5624 5623 5621 5619 5617 5615 5613 5610 5608 5606 5604 5601 5599 5596 5594 5592 5590 5588 5585 5583 5580 5578 5576 5574 5572 5569 5567 5564 5562 5559 5556 5554 5551 5549 5546 5544 5541 5538 5535 5532
5670 5669 5668 5666 5665 5663 5662 5660 5659 5657 5655 5654 5652 5650 5649 5647 5645 5644 5642 5640 5638 5636 5634 5632 5630 5628 5626 5624 5622 5620 5618 5616 5614 5612 5610 5608 5606 5604 5601 5599 5596 5594 5592 5589 5587 5585 5583 5580 5578 5575 5573 5570 5568 5566 5564 5561 5559 5556 5554 5551 5548 5546 5543 5541 5538 5535 5533 5529 5526
5667 5665 5664 5663 5661 5660 5658 5657 5655 5654 5652 5650 5648 5647 5645 5643 5641 5640 5638 5636 5634 5632 5630 5628 5626 5624 5622 5620 5618 5616 5614 5612 5609 5608 5605 5603 5601 5599 5596 5594 5591 5589 5587 5584 5582 5580 5578 5575 5573 5570 5567 5565 5563 5560 5558 5556 5553 5551 5548 5545 5543 5540 5537 5534 5532 5529 5527 5524 5521
5664 5662 5661 5659 5658 5656 5655 5653 5651 5650 5648 5646 5644 5643 5641 5639 5637 5636 5634 5632 5630 5628 5626 5624 5622 5619 5618 5616 5614 5611 5609 5607 5605 5603 5600 5598 5596 5594 5591 5589 5586 5584 5582 5579 5577 5575 5573 5570 5568 5565 5562 5560 5557 5555 5553 5550 5548 5545 5542 5540 5537 5534 5531 5529 5526 5524 5521 5518 5515
5660 5659 5657 5656 5654 5653 5651 5649 5648 5646 5644 5642 5640 5639 5637 5635 5634 5632 5630 5628 5626 5624 5622 5619 5617 5615 5613 5611 5609 5607 5604 5602 5600 5598 5595 5594 5591 5589 5587 5584 5582 5579 5577 5574 5572 5570 5567 5565 5562 5560 5557 5554 5552 5549 5547 5545 5542 5539 5537 5534 5531 5528 5525 5523 5520 5517 5514 5512 5509
5657 5655 5654 5652 5650 5649 5647 5645 5644 5642 5640 5638 5636 5635 5633 5631 5629 5628 5625 5624 5621 5619 5617 5615 5613 5611 5609 5607 5604 5602 5600 5598 5595 5593 5591 5589 5586 5584 5582 5579 5577 5574 5572 5569 5567 5564 5562 5560 5557 5554 5552 5549 5547 5544 5542 5539 5536 5534 5531 5528 5525 5522 5519 5517 5514 5511 5508 5505 5503
5653 5652 5650 5649 5647 5645 5643 5641 5639 5638 5636 5634 5632 5631 5629 5627 5625 5623 5621 5619 5617 5615 5613 5611 5609 5607 5604 5602 5600 5598 5595 5593 5590 5588 5586 5584 5581 5579 5577 5574 5572 5569 5567 5564 5562 5559 5557 5554 5552 5549 5547 5544 5541 5539 5536 5534 5531 5528 5525 5522 5519 5516 5514 5510 5508 5505 5502 5499 5496
5649 5648 5646 5645 5643 5641 5639 5637 5635 5634 5632 5630 5628 5627 5625 5623 5621 5619 5617 5615 5613 5611 5609 5607 5604 5602 5600 5598 5595 5593 5591 5588 5586 5583 5581 5579 5577 5574 5572 5570 5567 5564 5562 5559 5557 5554 5552 5549 5547 5544 5541 5539 5536 5533 5531 5528 5525 5523 5519 5517 5514 5510 5508 5504 5501 5499 5495 5492 5489
5646 5644 5643 5641 5639 5637 5635 5633 5631 5629 5628 5626 5624 5622 5621 5619 5617 5614 5613 5610 5609 5606 5604 5602 5600 5597 5595 5593 5591 5588 5586 5584 5581 5579 5576 5574 5572 5569 5567 5565 5562 5559 5556 5554 5551 5549 5546 5544 5541 5539 5536 5533 5530 5528 5525 5522 5520 5517 5514 5511 5508 5505 5502 5499 5495 5492 5489 5486 5483
5642 5640 5639 5637 5635 5633 5631 5629 5627 5626 5624 5622 5620 5618 5616 5614 5612 5610 5608 5606 5604 5602 5599 5597 5595 5593 5590 5588 5586 5584 5581 5579 5576 5574 5571 5569 5567 5564 5562 5560 5557 5554 5551 5548 5546 5544 5541 5538 5536 5533 5530 5528 5525 5522 5519 5517 5514 5511 5509 5505 5502 5499 5496 5493 5489 5486 5483 5479 5476
5638 5637 5635 5633 5631 5629 5627 5625 5623 5621 5620 5618 5616 5614 5612 5610 5608 5605 5604 5601 5599 5597 5595 5593 5590 5588 5586 5583 5581 5579 5576 5574 5571 5569 5566 5564 5562 5559 5557 5555 5552 5549 5546 5543 5540 5538 5535 5533 5530 5527 5524 5522 5519 5516 5514 5511 5509 5506 5503 5500 5497 5494 5490 5487 5484 5480 5477 5473 5470
5634 5633 5631 5629 5627 5625 5623 5621 5619 5617 5615 5614 5612 5609 5608 5605 5603 5601 5599 5597 5594 5592 5590 5588 5586 5584 5581 5579 5576 5574 5571 5569 5566 5564 5561 5559 5557 5554 5552 5549 5547 5544 5541 5538 5535 5532 5530 5527 5524 5521 5518 5515 5513 5510 5508 5505 5503 5500 5497 5494 5491 5488 5484 5481 5478 5474 5471 5467 5464
5630 5629 5627 5625 5623 5621 5619 5617 5615 5613 5611 5609 5607 5605 5603 5601 5599 5596 5594 5592 5590 5588 5586 5584 5581 5579 5576 5574 5572 5569 5567 5564 5561 5559 5556 5554 5551 5549 5546 5544 5541 5539 5536 5532 5529 5527 5524 5521 5518 5515 5512 5509 5507 5504 5502 5499 5497 5494 5491 5489 5485 5482 5479 5475 5472 5469 5465 5461 5457
5626 5624 5623 5621 5619 5617 5615 5613 5611 5609 5607 5605 5603 5600 5599 5596 5594 5592 5589 5587 5585 5583 5581 5579 5577 5574 5572 5569 5567 5564 5562 5559 5556 5554 5551 5548 5546 5543 5541 5538 5536 5533 5530 5527 5524 5521 5518 5515 5512 5509 5506 5503 5500 5498 5495 5493 5491 5488 5485 5483 5480 5476 5473 5469 5466 5463 5459 5455 5451
5622 5620 5618 5616 5614 5613 5610 5609 5606 5604 5602 5600 5598 5596 5594 5592 5589 5587 5585 5583 5580 5578 5576 5574 5572 5569 5567 5564 5562 5559 5557 5554 5551 5549 5545 5543 5540 5538 5535 5532 5530 5527 5524 5521 5518 5515 5512 5509 5506 5503 5500 5496 5494 5491 5489 5487 5484 5482 5479 5476 5474 5471 5467 5464 5460 5456 5453 5449 5445
5618 5616 5614 5612 5610 5608 5606 5604 5602 5600 5598 5595 5593 5591 5589 5587 5585 5583 5580 5578 5576 5574 5571 5569 5567 5564 5562 5559 5557 5554 5552 5549 5547 5544 5540 5537 5534 5532 5529 5526 5524 5521 5518 5515 5513 5509 5506 5503 5500 5497 5494 5490 5487 5484 5482 5480 5478 5475 5473 5470 5467 5464 5461 5458 5454 5450 5447 5443 5439